Location: Chmeln�
(49.6483°N, 14.9871°E)
Time: 02:24:21
(UTC+00:00)

H-2A R/B - Pass Details

Date: 18 September 2020
Orbit: 734 x 836 km, 98.2° (Epoch: 24 October)

Event Time Altitude Azimuth Distance (km) Brightness Sun altitude
Rises 19:14:33 0° 205° (SSW) 3,163 5.2 -20.7°
Reaches altitude 10° 19:17:21 10° 221° (SW) 2,255 4.6 -21.1°
Maximum altitude 19:21:03 21° 270° (W) 1,653 4.4 -21.6°
Drops below altitude 10° 19:24:51 10° 319° (NW) 2,306 5.5 -22.1°
Sets 19:27:45 0° 335° (NNW) 3,257 6.2 -22.5°
